Weather History for O'Neill, NE

Change the Weather History Date:

Sunday, December 30, 2012

  Actual Average Record
Temperature  
Mean Temperature 24 °F -  
Max Temperature 29 °F 26 °F 60 °F (2004)
Min Temperature 19 °F 8 °F -21 °F (1990)
Degree Days  
Heating Degree Days 41    
Moisture  
Dew Point 17 °F    
Average Humidity 74    
Maximum Humidity 87    
Minimum Humidity 64    
Precipitation  
Precipitation 0.00 in - - ()
Sea Level Pressure  
Sea Level Pressure 29.97 in    
Wind  
Wind Speed 10 mph (WNW)    
Max Wind Speed 18 mph    
Max Gust Speed 28 mph    
Visibility 10 miles    
Events      
Averages and records for this station are not official NWS values.
T = Trace of Precipitation, MM = Missing Value Source: NWS Daily Summary

Daily Weather History Graph

Daily Weather History Graph

Search for Another Location

Airport:

Trip Planner

Search our weather history database for the weather conditions in past years. The results will help you decide how hot, cold, wet, or windy it might be!

Date:

Astronomy

Dec. 30, 2012 Rise Set
Actual Time 8:04 AM CST 5:11 PM CST
Civil Twilight 7:32 AM CST 5:43 PM CST
Nautical Twilight 6:56 AM CST 6:18 PM CST
Astronomical Twilight 6:22 AM CST 6:52 PM CST
Moon 7:47 PM CST (12/30) 9:11 AM CST (12/30)
Length of Visible Light 10h 10m
Length of Day
9h 06m
Waning Gibbous, 95% of the Moon is Illuminated
Dec 30
Waning Gibbous
Jan 4
Last Quarter
Jan 11
New
Jan 18
First Quarter
Jan 26
Full

Hourly Weather History & Observations

Time (CST) Temp. Windchill Dew Point Humidity Pressure Visibility Wind Dir Wind Speed Gust Speed Precip Events Conditions
7:35 AM 20.7 °F 11.0 °F 13.3 °F 73% 29.96 in 10.0 mi SSE 8.1 mph - N/A   Clear
7:55 AM 19.4 °F 10.4 °F 12.7 °F 75% 29.97 in 10.0 mi South 6.9 mph - N/A   Clear
8:15 AM 19.8 °F 9.9 °F 12.9 °F 75% 29.96 in 10.0 mi South 8.1 mph - N/A   Clear
8:35 AM 21.7 °F 11.5 °F 14.4 °F 73% 29.95 in 10.0 mi South 9.2 mph - N/A   Clear
8:55 AM 21.9 °F 13.4 °F 14.4 °F 73% 29.94 in 10.0 mi SSE 6.9 mph - N/A   Clear
9:15 AM 22.3 °F 11.5 °F 15.1 °F 74% 29.93 in 10.0 mi South 10.4 mph - N/A   Clear
9:35 AM 23.0 °F 12.4 °F 15.8 °F 74% 29.92 in 10.0 mi South 10.4 mph - N/A   Clear
9:55 AM 22.8 °F 13.6 °F 16.0 °F 75% 29.93 in 10.0 mi South 8.1 mph - N/A   Clear
10:15 AM 23.9 °F 13.5 °F 16.7 °F 74% 29.92 in 10.0 mi South 10.4 mph - N/A   Clear
10:35 AM 23.9 °F 13.5 °F 17.2 °F 76% 29.91 in 10.0 mi SSW 10.4 mph - N/A   Clear
10:55 AM 25.2 °F 15.1 °F 18.0 °F 74% 29.90 in 10.0 mi SSW 10.4 mph - N/A   Clear
11:15 AM 25.7 °F 15.7 °F 18.5 °F 74% 29.90 in 10.0 mi SSW 10.4 mph - N/A   Clear
11:35 AM 26.6 °F 16.8 °F 19.2 °F 74% 29.88 in 10.0 mi SSW 10.4 mph - N/A   Clear
11:55 AM 27.1 °F 17.5 °F 19.8 °F 74% 29.88 in 10.0 mi SW 10.4 mph - N/A   Clear
12:15 PM 28.6 °F 20.7 °F 20.5 °F 72% 29.86 in 10.0 mi WSW 8.1 mph - N/A   Clear
12:35 PM 29.3 °F 19.6 °F 18.5 °F 64% 29.86 in 10.0 mi West 11.5 mph - N/A   Clear
12:55 PM 29.3 °F 20.8 °F 18.7 °F 65% 29.86 in 10.0 mi West 9.2 mph - N/A   Clear
1:15 PM 28.4 °F 18.0 °F 17.6 °F 64% 29.87 in 10.0 mi West 12.7 mph - N/A   Clear
1:35 PM 28.4 °F 18.5 °F 18.1 °F 65% 29.87 in 10.0 mi West 11.5 mph - N/A   Clear
1:55 PM 28.2 °F 17.7 °F 18.7 °F 67% 29.88 in 10.0 mi WNW 12.7 mph - N/A   Clear
2:15 PM 28.6 °F 18.2 °F 19.2 °F 68% 29.88 in 10.0 mi West 12.7 mph - N/A   Clear
2:35 PM 28.6 °F 19.3 °F 19.9 °F 70% 29.89 in 10.0 mi WNW 10.4 mph - N/A   Clear
2:55 PM 28.9 °F 16.5 °F 19.4 °F 68% 29.89 in 10.0 mi WNW 18.4 mph 27.6 mph N/A   Clear
3:15 PM 28.9 °F 18.2 °F 19.8 °F 69% 29.90 in 10.0 mi WNW 13.8 mph - N/A   Clear
3:35 PM 28.6 °F 17.2 °F 19.9 °F 70% 29.92 in 10.0 mi NW 15.0 mph 19.6 mph N/A   Clear
3:55 PM 28.4 °F 17.0 °F 19.4 °F 69% 29.93 in 10.0 mi NW 15.0 mph - N/A   Clear
4:15 PM 28.2 °F 17.7 °F 19.0 °F 68% 29.94 in 10.0 mi NW 12.7 mph - N/A   Clear
4:35 PM 27.5 °F 15.9 °F 18.5 °F 69% 29.96 in 10.0 mi NW 15.0 mph - N/A   Clear
4:55 PM 26.8 °F 14.5 °F 17.8 °F 69% 29.96 in 10.0 mi NW 16.1 mph - N/A   Clear
5:15 PM 26.2 °F 14.7 °F 17.1 °F 68% 29.97 in 10.0 mi NW 13.8 mph - N/A   Clear
5:35 PM 24.3 °F 13.9 °F 16.5 °F 72% 29.98 in 10.0 mi NW 10.4 mph - N/A   Clear
5:55 PM 24.8 °F 12.9 °F 16.7 °F 71% 29.98 in 10.0 mi NW 13.8 mph - N/A   Clear
6:15 PM 23.4 °F 11.6 °F 16.3 °F 75% 30.00 in 10.0 mi NW 12.7 mph - N/A   Clear
6:35 PM 23.4 °F 12.8 °F 16.3 °F 75% 30.01 in 10.0 mi NW 10.4 mph - N/A   Clear
6:55 PM 21.9 °F 11.7 °F 15.6 °F 77% 30.02 in 10.0 mi WNW 9.2 mph - N/A   Clear
7:15 PM 22.3 °F 11.5 °F 16.0 °F 77% 30.03 in 10.0 mi NW 10.4 mph - N/A   Clear
7:35 PM 22.3 °F 9.7 °F 16.5 °F 79% 30.03 in 10.0 mi NW 13.8 mph - N/A   Clear
7:55 PM 22.6 °F 10.1 °F 16.5 °F 77% 30.04 in 10.0 mi NW 13.8 mph - N/A   Clear
8:15 PM 22.3 °F 9.7 °F 16.7 °F 79% 30.05 in 10.0 mi NW 13.8 mph - N/A   Clear
8:35 PM 22.5 °F 9.9 °F 16.7 °F 79% 30.05 in 10.0 mi NW 13.8 mph - N/A   Clear
8:55 PM 22.6 °F 9.6 °F 17.1 °F 79% 30.05 in 10.0 mi NW 15.0 mph - N/A   Clear
9:15 PM 22.5 °F 9.9 °F 17.4 °F 81% 30.05 in 10.0 mi NNW 13.8 mph - N/A   Clear
9:35 PM 22.1 °F 10.0 °F 17.4 °F 82% 30.06 in 10.0 mi NNW 12.7 mph - N/A   Clear
9:55 PM 22.1 °F 11.3 °F 17.6 °F 83% 30.07 in 10.0 mi NW 10.4 mph - N/A   Clear
10:15 PM 22.1 °F 11.3 °F 17.6 °F 83% 30.09 in 10.0 mi NW 10.4 mph - N/A   Clear
10:35 PM 21.7 °F 10.8 °F 17.6 °F 84% 30.10 in 10.0 mi NW 10.4 mph - N/A   Clear
10:55 PM 21.2 °F 10.1 °F 17.4 °F 85% 30.10 in 10.0 mi NW 10.4 mph - N/A   Clear
11:15 PM 21.7 °F 10.2 °F 17.8 °F 85% 30.11 in 10.0 mi NW 11.5 mph - N/A   Mostly Cloudy
11:35 PM 21.9 °F 10.4 °F 18.3 °F 86% 30.11 in 10.0 mi NW 11.5 mph - N/A   Overcast
11:55 PM 20.1 °F 9.5 °F 16.7 °F 87% 30.11 in 10.0 mi NNW 9.2 mph - N/A   Scattered Clouds